Date String (YYYY-MM-DD hh:mm:ss) UTC,Instrument flags,absolute air pressure of the measurement (hPa),sample flow rate (lpm),inlet stack bypass flow (lpm),air temperature of the measurement (°C),ambient temperature measured by the external sensor (°C),aerosol sample conditioner tube jacket temperature (°C),OPC LED temperature (°C),internal box temperature (°C),relative humidity of the measurement (%),span deviation,mass concentration of particles derived from Lorenz-Mie calculation of OPC scattering (μg/m³),mass concentration of particles derived from Lorenz-Mie calculation of OPC scattering (μg/m³),mass concentration of particles derived from Lorenz-Mie calculation of OPC scattering (μg/m³)
DateTimeUTC,F1_M11,P_M11,Q1_M11,Q2_M11,T1_M11,T2_M11,T3_M11,T4_M11,T5_M11,U1_M11,ZSPAN_M11,X0_M11,X2_M11,X1_M11
2023-08-23 17:00:00,SystemResetWarning,0836.1,5.01,000.00,027.7,024.2,000.0,035.8,029.1,28.7,0001.9,0018.35,0007.39,0006.18
2023-08-23 17:01:00,SystemResetWarning,0836.1,5.01,000.00,027.6,024.4,000.0,035.8,029.1,27.5,0002.0,0018.45,0007.42,0006.19
2023-08-23 17:02:00,SystemResetWarning,0836.1,4.99,000.00,027.6,024.8,000.0,035.8,029.1,27.4,0001.9,0018.17,0007.49,0006.21
2023-08-23 17:03:00,SystemResetWarning,0836.1,5.00,000.00,027.6,025.2,000.0,035.9,029.3,27.1,0001.9,0018.03,0007.57,0006.22
2023-08-23 17:04:00,SystemResetWarning,0836.1,5.01,000.00,027.6,025.7,000.0,035.9,029.4,27.4,0001.6,0017.62,0007.56,0006.22
2023-08-23 17:05:00,SystemResetWarning,0836.1,5.01,000.00,027.7,026.1,000.0,035.9,029.5,27.3,0001.5,0017.18,0007.51,0006.22
2023-08-23 17:06:00,SystemResetWarning,0836.1,5.00,000.00,027.7,026.4,000.0,036.0,029.6,27.5,0001.9,0017.60,0007.46,0006.22
2023-08-23 17:07:00,SystemResetWarning,0836.1,4.99,000.00,027.8,026.1,000.0,035.9,029.5,27.3,0002.1,0017.79,0007.42,0006.22
2023-08-23 17:08:00,SystemResetWarning,0836.0,4.99,000.00,027.7,024.7,000.0,035.8,029.3,28.0,0002.3,0016.55,0007.46,0006.24
2023-08-23 17:09:00,SystemResetWarning,0835.9,5.01,000.00,027.6,024.3,000.0,035.8,029.1,27.5,0002.4,0015.99,0007.48,0006.25
2023-08-23 17:10:00,SystemResetWarning,0835.9,5.01,000.00,027.6,024.7,000.0,035.8,029.2,28.0,0002.2,0015.43,0007.41,0006.24
2023-08-23 17:11:00,SystemResetWarning,0835.9,4.99,000.00,027.6,025.1,000.0,035.9,029.3,28.7,0002.2,0014.67,0007.37,0006.24
2023-08-23 17:12:00,SystemResetWarning,0835.9,5.00,000.00,027.6,025.5,000.0,035.9,029.3,28.6,0002.2,0013.67,0007.35,0006.23
2023-08-23 17:13:00,SystemResetWarning,0835.9,5.00,000.00,027.7,025.9,000.0,035.9,029.4,28.4,0002.0,0013.12,0007.31,0006.23
2023-08-23 17:14:00,SystemResetWarning,0835.9,5.00,000.00,027.7,026.2,000.0,036.0,029.5,27.1,0002.1,0013.00,0007.21,0006.20
2023-08-23 17:15:00,SystemResetWarning,0836.0,5.00,000.00,027.8,026.1,000.0,035.9,029.5,26.2,0002.4,0013.62,0007.19,0006.20
2023-08-23 17:16:00,SystemResetWarning,0835.9,4.98,000.00,027.7,024.7,000.0,035.9,029.2,26.1,0002.6,0014.41,0007.24,0006.20
2023-08-23 17:17:00,SystemResetWarning,0835.9,5.03,000.00,027.6,024.3,000.0,035.8,029.1,26.7,0002.5,0013.93,0007.26,0006.20
2023-08-23 17:18:00,SystemResetWarning,0835.9,4.99,000.00,027.6,024.7,000.0,035.8,029.1,26.8,0001.9,0013.79,0007.27,0006.19
2023-08-23 17:19:00,SystemResetWarning,0835.9,5.00,000.00,027.6,025.0,000.0,035.9,029.2,26.7,0001.6,0013.73,0007.24,0006.18
2023-08-23 17:20:00,SystemResetWarning,0835.9,5.00,000.00,027.6,025.5,000.0,035.9,029.3,27.3,0001.2,0013.66,0007.20,0006.19
2023-08-23 17:21:00,SystemResetWarning,0835.9,5.01,000.00,027.7,025.9,000.0,035.9,029.4,27.8,0001.0,0013.70,0007.23,0006.20
2023-08-23 17:22:00,SystemResetWarning,0835.9,4.99,000.00,027.7,026.2,000.0,036.0,029.5,28.1,0001.0,0014.59,0007.30,0006.23
2023-08-23 17:23:00,SystemResetWarning,0835.9,4.99,000.00,027.8,026.0,000.0,035.9,029.5,27.3,0000.7,0015.21,0007.30,0006.22
2023-08-23 17:24:00,SystemResetWarning,0835.9,4.99,000.00,027.7,024.6,000.0,035.8,029.2,27.2,0000.5,0015.03,0007.27,0006.21
2023-08-23 17:25:00,SystemResetWarning,0835.8,5.02,000.00,027.6,024.1,000.0,035.8,029.1,26.9,0000.5,0015.24,0007.22,0006.20
2023-08-23 17:26:00,SystemResetWarning,0835.8,4.99,000.00,027.6,024.5,000.0,035.8,029.1,27.4,-000.1,0015.00,0007.24,0006.20
2023-08-23 17:27:00,SystemResetWarning,0835.8,4.99,000.00,027.6,024.9,000.0,035.8,029.2,28.2,-000.5,0014.18,0007.23,0006.21
2023-08-23 17:28:00,SystemResetWarning,0835.8,5.00,000.00,027.6,025.3,000.0,035.9,029.3,27.3,-000.5,0013.72,0007.23,0006.22
2023-08-23 17:29:00,SystemResetWarning,0835.8,5.00,000.00,027.6,025.8,000.0,035.9,029.4,27.3,-000.4,0014.33,0007.26,0006.23
2023-08-23 17:30:00,SystemResetWarning,0835.8,5.02,000.00,027.7,026.2,000.0,035.9,029.5,27.2,-000.1,0014.23,0007.22,0006.24
2023-08-23 17:31:00,SystemResetWarning,0835.8,5.00,000.00,027.7,026.4,000.0,036.0,029.6,27.9,0000.1,0014.18,0007.19,0006.22
2023-08-23 17:32:00,SystemResetWarning,0835.8,4.98,000.00,027.7,025.5,000.0,035.9,029.4,27.4,0000.1,0014.89,0007.18,0006.22
2023-08-23 17:33:00,SystemResetWarning,0835.8,5.01,000.00,027.6,024.3,000.0,035.8,029.1,28.0,-000.1,0014.34,0007.13,0006.21
2023-08-23 17:34:00,SystemResetWarning,0835.8,5.01,000.00,027.6,024.5,000.0,035.8,029.1,28.7,0000.0,0013.18,0007.10,0006.21
2023-08-23 17:35:00,SystemResetWarning,0835.8,5.00,000.00,027.6,024.9,000.0,035.8,029.1,27.9,0000.3,0013.84,0007.15,0006.22
2023-08-23 17:36:00,SystemResetWarning,0835.8,5.00,000.00,027.6,025.3,000.0,035.9,029.2,27.6,0000.4,0014.54,0007.18,0006.23
2023-08-23 17:37:00,SystemResetWarning,0835.9,5.00,000.00,027.6,025.7,000.0,035.9,029.4,28.0,0000.6,0014.64,0007.21,0006.24
2023-08-23 17:38:00,SystemResetWarning,0835.9,5.00,000.00,027.7,026.1,000.0,035.9,029.5,27.6,0001.2,0015.00,0007.24,0006.24
2023-08-23 17:39:00,SystemResetWarning,0835.8,5.01,000.00,027.7,026.4,000.0,036.0,029.6,26.7,0001.3,0014.75,0007.20,0006.24
2023-08-23 17:40:00,SystemResetWarning,0835.8,5.00,000.00,027.7,025.5,000.0,035.9,029.4,27.2,0001.1,0014.17,0007.19,0006.24
2023-08-23 17:41:00,SystemResetWarning,0835.8,4.98,000.00,027.7,024.3,000.0,035.8,029.1,27.2,0001.0,0013.92,0007.21,0006.27
2023-08-23 17:42:00,SystemResetWarning,0835.8,5.02,000.00,027.6,024.4,000.0,035.8,029.1,27.3,0001.3,0014.00,0007.25,0006.29
2023-08-23 17:43:00,SystemResetWarning,0835.8,5.00,000.00,027.6,024.8,000.0,035.8,029.2,26.9,0001.5,0013.28,0007.24,0006.31
2023-08-23 17:44:00,SystemResetWarning,0835.8,5.00,000.00,027.6,025.2,000.0,035.9,029.3,27.4,0001.7,0013.54,0007.22,0006.31
2023-08-23 17:45:00,SystemResetWarning,0835.8,5.01,000.00,027.6,025.7,000.0,035.9,029.4,26.8,0001.8,0013.84,0007.25,0006.31
2023-08-23 17:46:00,SystemResetWarning,0835.8,5.00,000.00,027.7,026.1,000.0,035.9,029.5,27.0,0001.5,0014.23,0007.18,0006.31
2023-08-23 17:47:00,SystemResetWarning,0835.7,5.00,000.00,027.7,026.4,000.0,036.0,029.6,27.0,0001.3,0013.23,0007.18,0006.31
2023-08-23 17:48:00,SystemResetWarning,0835.6,4.98,000.00,027.7,025.4,000.0,035.9,029.4,28.0,0001.4,0013.17,0007.16,0006.30
2023-08-23 17:49:00,SystemResetWarning,0835.6,5.01,000.00,027.7,024.2,000.0,035.8,029.1,28.2,0001.6,0013.77,0007.15,0006.32
2023-08-23 17:50:00,SystemResetWarning,0835.6,5.01,000.00,027.6,024.4,000.0,035.8,029.1,28.3,0001.9,0014.17,0007.14,0006.33
2023-08-23 17:51:00,SystemResetWarning,0835.7,4.99,000.00,027.6,024.8,000.0,035.8,029.2,27.8,0002.1,0014.86,0007.10,0006.33
2023-08-23 17:52:00,SystemResetWarning,0835.6,5.00,000.00,027.6,025.3,000.0,035.9,029.3,27.5,0002.3,0015.02,0007.08,0006.33
2023-08-23 17:53:00,SystemResetWarning,0835.6,5.00,000.00,027.6,025.7,000.0,035.9,029.4,27.7,0002.3,0015.27,0007.13,0006.33
2023-08-23 17:54:00,SystemResetWarning,0835.6,5.01,000.00,027.7,026.1,000.0,035.9,029.5,27.2,0002.4,0015.39,0007.15,0006.32
2023-08-23 17:55:00,SystemResetWarning,0835.6,4.99,000.00,027.7,026.4,000.0,036.0,029.6,27.2,0002.5,0015.66,0007.20,0006.32
2023-08-23 17:56:00,SystemResetWarning,0835.6,5.00,000.00,027.8,026.7,000.0,036.0,029.7,26.5,0002.6,0015.73,0007.15,0006.31
2023-08-23 17:57:00,SystemResetWarning,0835.6,4.98,000.00,027.8,025.8,000.0,035.9,029.5,25.9,0002.6,0015.42,0007.17,0006.33
2023-08-23 17:58:00,SystemResetWarning,0835.6,5.00,000.00,027.7,024.5,000.0,035.8,029.2,26.0,0002.6,0014.87,0007.19,0006.36
2023-08-23 17:59:00,SystemResetWarning,0835.6,5.01,000.00,027.7,024.5,000.0,035.8,029.2,26.3,0002.6,0014.88,0007.21,0006.39
